This demonstration page uses our WeatherBlox Daily Observations layout. Learn more.

39.92423, -83.80882

Hourly Observations for September 19, 2019

Temp ( °F °C ) Dew Point ( °F °C ) Humidity (%) Winds ( mph kmh ) Pressure ( in mb ) Visibility ( mi km ) Precip ( " mm )
12:56 am 00:56 Clear 62 16.7 51 10.6 67 67 E 9 15 30.12 1020 10 16.09344 0 0
1:56 am 01:56 Clear 59 15 50 10 72 72 E 7 11 30.12 1020 10 16.09344 0 0
2:56 am 02:56 Clear 56 13.3 49 9.4 77 77 E 7 11 30.12 1020 10 16.09344 0 0
3:56 am 03:56 Clear 56 13.3 50 10 81 81 E 7 11 30.09 1019 10 16.09344 0 0
4:56 am 04:56 Clear 55 12.8 49 9.4 80 80 E 7 11 30.09 1019 10 16.09344 0 0
5:56 am 05:56 Clear 54 12.2 49 9.4 83 83 E 5 7 30.09 1019 10 16.09344 0 0
6:56 am 06:56 Clear 54 12.2 49 9.4 83 83 ESE 5 7 30.12 1020 10 16.09344 0 0
7:56 am 07:56 Sunny 56 13.3 52 11.1 87 87 E 6 9 30.12 1020 10 16.09344 0 0
8:56 am 08:56 Sunny 63 17.2 55 12.8 76 76 ESE 9 15 30.15 1021 10 16.09344 0 0
9:56 am 09:56 Mostly Sunny 69 20.6 58 14.4 68 68 SE 14 22 30.15 1021 10 16.09344 0 0
10:56 am 10:56 Sunny 73 22.8 60 15.6 64 64 SE 9 15 30.15 1021 10 16.09344 0 0
11:56 am 11:56 Sunny 78 25.6 63 17.2 60 60 VRB 5 7 30.12 1020 10 16.09344 0 0
12:56 pm 12:56 Sunny 80 26.7 64 17.8 58 58 SSE 7 11 30.12 1020 10 16.09344 0 0
1:56 pm 13:56 Sunny 83 28.3 66 18.9 57 57 S 6 9 30.09 1019 10 16.09344 0 0
2:56 pm 14:56 Partly Cloudy 84 28.9 65 18.3 53 53 SE 9 15 30.09 1019 10 16.09344 0 0
3:56 pm 15:56 Mostly Cloudy 84 28.9 66 18.9 55 55 SSE 10 17 30.09 1019 10 16.09344 0 0
4:56 pm 16:56 Mostly Cloudy 83 28.3 66 18.9 57 57 SSE 14 22 30.09 1019 10 16.09344 0 0
5:56 pm 17:56 Partly Cloudy 81 27.2 67 19.4 62 62 SSE 12 19 30.09 1019 10 16.09344 0 0
6:56 pm 18:56 Sunny 80 26.7 67 19.4 64 64 S 7 11 30.09 1019 10 16.09344 0 0
7:56 pm 19:56 Clear 76 24.4 66 18.9 72 72 SSE 7 11 30.09 1019 10 16.09344 0 0
8:56 pm 20:56 Clear 73 22.8 66 18.9 79 79 SE 7 11 30.09 1019 10 16.09344 0 0
9:56 pm 21:56 Clear 72 22.2 65 18.3 79 79 SE 7 11 30.09 1019 10 16.09344 0 0
10:56 pm 22:56 Clear 69 20.6 65 18.3 87 87 SE 6 9 30.12 1020 10 16.09344 0 0
11:56 pm 23:56 Clear 69 20.6 65 18.3 87 87 SSE 7 11 30.12 1020 10 16.09344 0 0

Powered by AerisWeather